Location: Br�ttisellen
(47.4227°N, 8.6287°E)
Time: 06:24:29
(UTC+00:00)

USA 32 - Pass Details

Date: 09 April 2020
Orbit: 777 x 783 km, 85.0° (Epoch: 22 April)

Event Time Altitude Azimuth Distance (km) Brightness Sun altitude
Rises 20:17:58 0° 357° (N) 3,274 7.9 -20.7°
Reaches altitude 10° 20:20:24 10° 2° (N) 2,341 7.0 -21.0°
Maximum altitude 20:25:33 55° 80° (E) 935 4.2 -21.6°
Enters shadow 20:26:23 49° 115° (ESE) 998 4.1 -21.7°
